OKEAN-0
1 25860U 99039A 12165.93480607 .00000548 00000-0 90365-4 0 06556
2 25860 097.9362 128.6445 0000530 050.7774 309.3480 14.74216389694097
NOAA-16
1 26536U 00055A 12165.70864399 -.00000125 00000-0 -42758-4 0 07801
2 26536 099.0946 207.7785 0011453 093.3512 266.8963 14.12747112604543
NOAA-17
1 27453U 02032A 12165.86171849 .00000090 00000-0 56646-4 0 07377
2 27453 098.3368 193.0672 0011998 161.8495 198.3099 14.24444310518280
NOAA-18
1 28654U 05018A 12165.87620872 .00000341 00000-0 21237-3 0 02140
2 28654 099.0451 123.9358 0014479 160.5243 199.6507 14.11661344364092
NOAA-19
1 33591U 09005A 12165.88334822 .00000551 00000-0 32838-3 0 04069
2 33591 098.8630 105.7128 0014698 033.7072 326.5033 14.11350553172540
HUBBLE
1 20580U 90037B 12166.20154201 .00001394 00000-0 89930-4 0 176
2 20580 028.4688 163.0832 0003008 027.5789 332.4986 15.02553162 14285
ISS
1 25544U 98067A 12166.51132299 .00012501 00000-0 18019-3 0 7458
2 25544 051.6380 135.7761 0010768 066.6258 034.5777 15.56363414777596
CO-58
1 28895U 05043F 12166.41139944 .00000856 00000-0 18454-3 0 2004
2 28895 097.9136 032.8059 0018498 156.0953 204.1116 14.60644161353251
FALCON
1 30776U 07006E 12165.81193135 .00004349 00000-0 28277-3 0 03793
2 30776 035.4329 297.4563 0002425 340.4730 019.5894 15.07562851289747
MAST
1 31126U 07012K 12165.98890774 .00000616 00000-0 14707-3 0 04912
2 31126 097.8746 177.2775 0094642 120.1485 240.9129 14.54165738273809
CAPE1
1 31130U 07012P 12165.54008777 .00000934 00000-0 22161-3 0 04931
2 31130 097.8837 173.2387 0102354 134.5899 226.3715 14.52945770273245
COMPASS
1 32787U 08021E 12166.16992214 .00002300 00000-0 28194-3 0 3275
2 32787 097.7999 227.5713 0016418 072.3237 287.9760 14.84013746223363
AAUSAT2
1 32788U 08021F 12165.87057394 .00002944 00000-0 35622-3 0 03205
2 32788 097.8041 227.6604 0016394 073.2553 287.0449 14.84336262223341
DO-64
1 32789U 08021G 12165.71944018 .00003932 00000-0 45701-3 0 03361
2 32789 097.8119 229.5182 0015828 070.8649 289.4275 14.85825234223368
CO-66
1 32791U 08021J 12165.61870398 .00002321 00000-0 28840-3 0 03199
2 32791 097.7992 226.7777 0016853 074.4925 285.8148 14.83428705223217
RS-30
1 32953U 08025A 12166.47277770 .00000010 00000-0 00000 0 0 8689
2 32953 082.5018 296.8249 0017890 316.5738 043.3935 12.43024433184226
TACSAT-3
1 35001U 09028A 12121.72616188 .15204951 73582-5 42606-3 0 00016
2 35001 040.4259 351.8840 0007146 275.2650 085.0693 16.45157000166990
PHARMSAT
1 35002U 09028B 12165.91022011 .00160764 00000-0 65308-3 0 9348
2 35002 040.4569 088.3726 0011416 222.5029 137.4917 15.84823837173809
METEOR-M
1 35865U 09049A 12166.33443269 -.00000007 00000-0 16602-4 0 5015
2 35865 098.6548 220.7141 0003377 066.7401 293.4130 14.21864089142192
RS-38
1 35869U 09049E 12166.28565212 .00000042 00000-0 38362-4 0 5077
2 35869 098.6501 220.6618 0005512 063.7640 296.4099 14.22074258142209
JUGNU
1 37839U 11058B 12165.92014309 .00000620 00000-0 19019-3 0 01676
2 37839 019.9624 018.0225 0018755 185.8980 174.1127 14.12060277034781
SRMSAT
1 37841U 11058D 12165.89947223 .00000264 00000-0 00000-0 0 01687
2 37841 019.9723 022.9606 0011794 157.3933 202.7030 14.10143625034732
RAX-2
1 37853U 11061D 12166.55037444 .00004951 00000-0 39758-3 0 2035
2 37853 101.7159 205.5346 0246781 358.4719 001.5698 14.80049829 34003
AUBIESAT
1 37854U 11061E 12165.89759026 .00005327 00000-0 42224-3 0 02040
2 37854 101.7165 204.8229 0246797 359.8360 000.2719 14.80423964033901
HRBE
1 37855U 11061F 12165.97849439 .00004872 00000-0 38607-3 0 02086
2 37855 101.7194 204.9043 0248459 359.5765 000.5188 14.80280225033917
RS-39
1 38051U 11062C 12166.44458451 .00009292 00000-0 38740-3 0 4226
2 38051 051.6378 172.9045 0013263 028.8630 106.3043 15.24305501 21555
E-STAR
1 38079U 12006C 12166.47674800 .00028422 00000-0 69436-3 0 2888
2 38079 069.4946 321.8730 0745652 251.2562 100.6227 14.14613241 17208
GOLIAT
1 38085U 12006J 12165.82964299 .00028370 00000-0 69034-3 0 2669
2 38085 069.4980 323.5968 0750721 252.3007 099.4894 14.13613711 17109
HORYU-2
1 38340U 12025D 12165.89967508 .00001637 00000-0 28131-3 0 328
2 38340 098.1734 105.6194 0012812 346.4388 013.6554 14.69980213 3996
